Погода в Бларни

Ирландия     51°56′14″N   8°33′39″W
темп.,
°C
ветер,
м/с
пор.,
м/с
влажн.,
%
обл.,
%
осадки,
мм/ч
давл.,
гПа
погр.,
м
27 сентября, пн
пн2701:00+9зюз3890100 0.8 1003234
04:00+8юз269220 0.1 1003124
07:00+7юз299528 0.6 1004210
10:00+11зюз5118259 0.1 10071145
13:00+13з7126957 0.8 10081495
16:00+13зюз611695 0.9 10101494
19:00+9зюз4108265 1.6 1012485
22:00+8юз31186100 0.0 1013333
28 сентября, вт
вт2801:00+8ююз2983100 0.0 1013297
04:00+9юз3992100 0.3 1012449
07:00+8ю139498 0.9 101284
10:00+11ююз2688100 0.6 1011406
13:00+11ююз2491100 2.1 1010226
16:00+9ссз4893100 4.6 1008550
19:00+8зсз412884 6.9 1011708
22:00+7зсз414880 0.0 1015602
29 сентября, ср
ср2901:00+6зсз312862 0.0 1018456
04:00+5з248913 0.0 102197
07:00+5з23895 0.0 102461
10:00+10з27725 0.0 1025435
13:00+13з4749100 0.0 10261952
16:00+14юз5858100 0.0 10251580
19:00+12юз41071100 0.0 1024924
22:00+13ююз61274100 0.0 10221034
30 сентября, чт
чт3001:00+13ююз81690100 0.2 10181014
04:00+14юз71594100 0.7 10151070
07:00+15зюз61394100 4.1 1013905
10:00+14з5118794 0.2 10141084
13:00+16з61168100 0.3 10151360
16:00+15з61171100 0.1 10151359
19:00+12зюз4981100 0.1 1015574
22:00+12юз41286100 0.0 1014745
1 октября, пт
пт101:00+13юз71588100 0.1 1011953
04:00+14юз81785100 0.3 10071118
07:00+14юз91992100 0.9 10031159
10:00+11з7148749 3.3 10031260
13:00+12з8157087 3.5 10051761
16:00+11з7147046 0.6 10051783
19:00+8з6147892 1.3 10061165
22:00+8з31083100 0.3 1006661